Airfield :
LOGIN :

Register | Disclaimer

   EN    FR    IT 

 










Legend :    VFR   Marginal VFR   IFR   Intensive IFR   Very Intensive IFR
Visi :
Ceiling :
>= 8 km
>= 3000ft
5 to 8 km
1000 to 3000 ft
1500m to 5 km
500 to 1000 ft
800 to 1500m
200 to 500 ft
< 800m
< 200 ft
Symbols :   Thunderstorms  Fog  Heavy snow  Heavy precipitations  Wind > 20 kt
SIGMETs :     Misc.  Thunderstorms  Icing  Turbulence  Mountain Waves  Volcanic Ashes






- Airport Elevation : 302 ft


LFPM - Melun Villaroche

CURRENT METAR :
  • 280830Z AUTO 25020KT 9999 BKN009 OVC018 12/11 Q1007

EXPIRED METARs :
  • 280800Z AUTO 25018KT 9999 -RADZ OVC007 11/11 Q1007
  • 280730Z AUTO 24017KT 8000 -RA OVC007/// ///TCU 11/11 Q1007
  • 280700Z AUTO 23016KT 9999 -RA BKN007/// OVC011/// ///TCU 11/10 Q1007
  • 280630Z AUTO 23012KT 200V260 5000 RA BR OVC006/// ///CB 10/10 Q1007
  • 280600Z AUTO 24013KT 4500 RA BR OVC007/// ///CB 11/10 Q1007

Expired Forecast.
ATIS : +33 1 64 14 28 44



MET'MAP, your aeronautical weather chart ! - Copyright ORBIFLY December 2007 - Disclaimer

ORBIFLY MET'MAP TEAM :

Programming & Development : Alexandra Zaïnal
Concept & original design : Baudouin d'Aumeries
Assistance for programming : Marc-Olivier Méhu
Technical & hardware support : Manuel Goepfert

Contact : metmap@orbifly.com




SOURCES & CREDITS :

   NOAA